Wind_Speed
30 29 29 29 28 26 24 24 22 21 20 18 17 15 14 14 14 15 16 16 16 16 16 17 17 17 17 17 17 17 18 17 16 15 14 12 12 11 11 11 11 10 10 9 8 7 7 7 8 10 10 9 10 11 10 10 10 10 10 11 11 13 14 15 16 16 17 18 19 19 18 19 19 19 19 19 19 19 19 18 19 19 20 20 21
32 30 29 30 29 27 25 24 23 22 21 19 18 16 15 14 15 15 16 16 16 16 15 16 16 17 17 17 17 16 16 16 16 15 14 13 12 11 11 11 11 10 10 9 8 7 7 7 8 10 10 10 10 10 10 11 11 9 10 10 12 14 15 15 16 16 17 17 18 18 18 18 18 18 18 18 18 19 19 19 19 19 19 20 21
31 31 30 30 29 27 26 25 24 23 22 20 19 17 16 15 15 15 16 16 16 15 15 15 15 16 16 16 16 16 16 15 15 14 14 14 13 12 12 11 10 10 9 9 7 7 7 7 7 9 10 10 10 10 10 10 10 9 10 11 13 14 14 14 15 16 16 16 16 17 17 17 17 17 16 17 17 18 18 19 19 18 18 20 21
31 31 31 30 30 28 26 25 24 24 23 22 20 18 17 16 15 15 16 16 16 15 15 14 15 15 15 15 15 15 15 15 14 14 14 14 14 13 12 11 9 9 8 8 7 6 6 6 7 9 10 10 10 9 10 10 10 9 10 12 14 13 13 13 14 14 15 16 16 16 16 16 16 16 15 15 16 17 17 18 18 17 18 19 19
31 31 30 30 30 28 27 25 24 24 24 23 21 20 18 16 15 15 16 16 16 16 15 14 14 15 15 15 15 15 15 15 14 14 14 14 14 13 12 11 10 8 8 8 8 6 5 5 6 9 10 10 9 9 9 10 10 10 11 13 14 13 12 13 13 13 14 15 16 16 16 15 15 16 15 15 15 16 17 17 17 18 18 18 18
31 31 30 31 30 28 27 26 24 24 24 23 22 20 18 17 15 15 15 17 17 16 16 15 15 14 14 15 15 15 14 14 14 14 14 14 14 14 13 12 11 9 8 7 7 7 6 6 6 8 10 10 10 9 9 10 10 11 12 13 13 13 12 12 12 12 13 14 14 15 15 14 14 15 15 15 15 15 16 16 16 17 17 17 18
30 30 30 30 30 29 27 26 25 24 24 24 22 21 19 17 16 15 15 17 17 17 16 15 15 15 15 14 14 13 13 14 13 13 13 13 13 14 14 13 11 9 9 8 7 7 8 7 6 6 9 9 10 9 9 10 11 12 12 13 13 12 11 11 12 12 12 13 13 14 14 14 13 15 15 14 14 14 14 14 15 16 17 17 17
31 30 30 30 30 29 27 26 24 24 24 24 23 21 19 18 17 16 16 17 17 16 15 15 15 14 14 13 13 12 12 12 12 12 12 12 12 12 13 12 11 10 10 10 8 7 7 8 7 5 7 9 9 9 9 10 12 13 13 12 12 11 11 11 11 12 12 12 12 13 13 13 12 13 14 13 13 13 13 13 14 15 16 16 17
31 30 31 30 29 28 27 26 24 24 25 24 23 21 20 18 18 17 17 17 16 15 14 13 13 13 12 12 12 11 11 11 11 10 11 10 10 10 10 11 10 10 10 10 9 6 4 5 6 5 6 9 10 10 10 10 11 13 14 13 11 11 11 11 11 11 11 11 11 11 12 11 11 12 12 12 12 12 12 12 13 14 15 16 16
31 30 30 29 28 27 26 25 24 24 24 25 23 22 20 18 18 17 17 17 15 14 13 13 12 12 12 12 11 11 10 9 9 9 10 9 9 9 9 9 9 10 9 9 8 5 3 2 4 5 4 7 8 9 10 10 10 10 13 13 11 11 12 11 11 11 12 11 10 10 11 10 10 10 10 11 12 12 11 11 12 13 14 15 16
30 29 29 28 28 27 27 25 23 23 24 25 24 22 21 19 17 17 17 16 15 14 13 13 13 13 12 12 12 12 11 10 10 9 9 9 9 8 8 8 7 8 8 7 7 5 3 1 2 3 3 4 7 9 10 10 9 9 12 14 11 11 12 11 11 11 11 10 9 9 9 10 9 8 8 8 9 10 11 11 11 12 14 14 15
29 28 28 27 27 27 26 24 22 22 22 24 24 23 21 19 17 16 16 15 14 13 13 14 14 14 13 14 14 14 13 12 11 11 10 9 9 9 8 7 6 6 7 6 6 5 4 1 0 1 2 3 6 8 10 9 9 8 10 13 12 11 11 10 10 10 10 10 9 7 8 8 8 8 7 7 7 9 10 10 10 12 13 14 15
29 27 26 25 25 24 23 22 21 21 22 23 24 23 21 20 18 16 15 15 14 13 14 15 15 15 15 15 15 15 14 13 12 12 11 11 10 9 9 8 7 7 7 6 6 5 5 3 2 1 1 2 5 7 8 9 9 8 8 12 12 11 10 9 9 8 9 9 8 6 6 6 6 6 6 6 6 7 8 9 9 11 12 13 14
28 26 25 24 23 21 20 20 20 21 21 23 24 23 22 20 19 17 16 15 14 14 15 15 16 16 16 16 16 15 14 13 12 12 12 11 10 9 9 8 8 8 7 6 5 5 5 5 4 3 3 2 4 7 8 9 9 8 8 10 12 11 9 8 7 8 8 8 7 6 5 4 4 5 4 4 5 6 6 8 8 9 11 12 13
28 26 25 25 24 21 20 19 19 19 21 23 23 23 22 21 19 17 16 16 15 15 16 16 17 17 16 15 15 14 13 12 12 12 11 10 9 9 9 8 8 8 7 6 5 5 5 5 5 5 5 4 5 8 9 9 10 8 8 10 11 11 9 7 6 7 7 7 6 5 4 2 2 3 3 3 4 4 5 6 7 8 9 11 12
27 25 24 24 23 22 22 21 20 19 19 21 21 21 21 21 19 17 17 17 15 15 16 17 17 16 15 14 13 12 12 11 11 10 10 9 9 8 8 7 7 7 6 6 6 6 6 6 5 6 7 7 7 9 11 11 11 9 8 9 10 9 8 8 6 6 7 7 6 5 3 2 0 1 2 3 3 3 3 4 5 6 7 9 10
26 25 24 23 22 21 21 21 20 19 18 19 19 20 21 21 19 18 17 17 16 15 17 17 16 15 14 13 12 11 10 10 10 9 9 8 8 8 8 7 7 6 6 6 6 6 6 6 5 7 9 10 10 11 13 12 12 10 8 9 9 8 8 8 7 6 7 7 7 5 4 3 1 1 2 2 3 3 3 3 4 4 5 7 9
27 25 24 22 21 20 20 20 20 20 20 20 20 21 21 21 19 18 17 17 17 16 16 16 15 14 13 12 10 9 8 8 9 8 8 7 7 7 7 7 6 6 5 5 6 5 5 6 5 6 9 11 13 14 15 14 13 12 8 8 8 8 7 7 7 7 7 7 7 6 5 3 2 1 2 2 3 4 3 2 2 3 4 5 7
26 25 24 23 21 20 20 20 20 20 21 21 22 22 21 21 20 18 18 17 17 16 16 15 15 13 12 11 10 8 7 7 7 7 7 6 6 5 5 6 5 5 4 4 5 4 5 6 5 6 9 11 13 16 17 15 14 12 9 8 8 7 7 7 7 8 8 8 7 6 4 3 3 2 2 2 3 3 3 3 2 2 2 4 5
26 27 26 24 22 20 20 20 21 21 21 23 22 22 21 20 20 19 18 17 17 16 15 15 14 13 12 11 10 9 8 7 6 6 6 5 4 3 3 4 4 5 4 4 3 4 5 6 6 6 8 11 13 16 19 17 14 12 9 7 7 7 7 7 8 9 9 8 7 6 4 3 3 3 3 2 1 2 3 3 2 1 1 2 3
29 29 28 26 23 20 19 19 21 21 22 22 22 21 20 21 20 19 18 18 17 16 15 14 13 12 11 10 9 8 7 7 5 4 4 3 3 2 2 2 3 4 4 3 3 3 5 7 7 6 8 10 11 15 19 18 15 13 9 7 7 7 7 7 8 9 9 8 7 6 4 2 3 4 4 3 2 1 2 2 2 1 0 1 2
31 30 28 26 25 23 20 18 19 20 21 20 21 22 21 21 20 19 18 17 16 15 14 13 12 11 9 8 7 7 7 6 4 3 2 2 2 2 2 2 3 4 4 3 2 2 5 7 7 6 8 10 10 14 19 19 16 13 9 8 7 7 7 8 8 9 8 8 7 6 4 2 3 5 5 4 4 2 1 2 2 1 1 0 1
31 29 26 24 25 25 21 19 20 20 20 19 21 23 22 20 19 18 17 16 15 14 13 12 11 9 8 6 6 8 7 5 4 3 3 3 3 1 2 3 3 3 4 3 2 2 4 6 7 6 8 10 10 12 18 19 16 12 9 8 7 8 8 7 7 8 8 7 6 5 4 2 3 4 5 5 5 4 3 2 2 2 1 1 1
33 29 24 24 26 26 23 22 21 19 20 19 21 22 21 20 19 18 16 14 13 12 11 10 10 8 7 7 7 7 7 6 5 4 4 3 3 2 2 3 3 3 3 3 2 1 3 6 6 7 9 10 10 11 17 18 15 12 9 7 7 8 8 8 7 7 7 6 6 5 4 3 2 3 4 5 5 5 3 3 3 2 1 1 1
31 27 23 25 26 25 25 24 19 18 20 19 20 20 20 20 19 18 16 13 11 10 9 9 9 8 8 9 9 7 6 7 6 5 4 3 4 3 3 4 5 4 3 3 2 2 2 5 6 8 9 9 9 11 16 18 15 12 9 7 6 8 9 9 8 7 7 6 6 5 5 4 2 3 4 5 5 4 3 3 3 2 1 1 1
26 24 24 26 26 24 23 21 17 17 20 19 19 19 19 19 18 17 14 12 10 9 8 7 7 7 8 8 9 8 6 7 6 5 4 3 4 4 4 4 5 5 4 3 2 2 3 4 6 8 10 9 9 11 16 18 15 12 10 8 7 8 10 9 8 7 7 7 6 5 5 5 4 3 4 4 5 5 4 4 4 2 2 1 2
20 20 22 23 23 22 20 18 16 16 19 19 19 17 17 16 15 13 11 10 8 8 7 6 6 6 7 6 7 7 6 7 6 5 4 3 4 5 5 5 6 5 5 4 3 3 4 4 7 9 9 8 8 10 16 18 15 12 10 10 9 9 9 9 8 7 7 7 5 5 5 5 5 6 5 4 4 6 5 4 4 3 2 2 2
17 18 19 17 18 19 19 19 17 16 17 18 17 14 14 13 12 11 9 8 7 6 6 5 6 6 6 6 5 6 6 7 6 5 4 3 3 4 5 6 6 5 4 3 3 4 5 6 8 10 9 8 7 9 15 18 16 12 10 9 9 8 7 7 7 6 7 7 5 5 5 5 6 7 7 5 3 4 4 4 4 4 3 3 3
16 18 17 14 16 18 18 20 19 17 17 16 15 13 12 11 11 9 7 7 6 5 5 6 6 7 7 6 5 5 5 5 5 5 4 4 4 3 4 4 4 4 4 3 4 4 5 7 10 12 10 9 8 9 14 18 16 11 9 7 7 7 6 6 6 6 8 7 5 4 5 5 6 7 8 7 6 4 2 2 3 3 3 4 5
14 15 14 16 18 17 16 17 17 17 17 16 14 13 12 10 9 7 6 5 5 5 6 7 8 8 8 7 7 6 5 6 5 5 5 4 4 4 4 3 3 4 4 4 5 5 6 8 12 13 11 10 10 9 13 17 15 11 8 7 6 7 7 7 8 9 9 7 6 5 5 6 7 7 7 7 6 6 5 2 0 1 2 3 5
17 13 13 17 16 13 13 15 16 15 15 14 12 12 11 9 7 7 6 5 6 7 8 9 10 11 10 9 9 8 7 7 7 7 6 5 5 5 5 4 3 4 5 5 6 6 6 8 13 14 12 11 10 10 11 14 14 10 8 7 6 6 5 6 9 10 11 9 7 6 6 6 6 6 6 6 5 5 5 3 2 1 1 2 3
22 18 17 18 14 11 12 13 16 17 15 13 10 9 10 8 6 7 6 7 9 9 9 9 10 11 11 12 11 10 9 9 8 8 8 7 6 5 7 6 4 5 6 6 6 6 6 8 12 13 11 10 10 11 11 11 11 9 7 6 5 4 3 3 5 4 9 12 9 7 7 6 5 5 5 5 4 3 3 2 2 2 2 2 3
21 21 20 17 15 12 11 11 12 13 13 11 8 7 9 8 7 7 7 8 10 10 9 8 8 9 11 12 12 11 11 10 9 9 9 8 8 7 7 6 7 7 7 8 8 7 7 7 10 13 11 10 10 11 11 10 9 7 6 5 4 4 3 3 3 4 5 7 9 9 8 6 5 4 4 4 3 3 3 2 1 2 2 3 3
18 22 21 19 17 13 11 10 9 10 10 10 9 8 8 8 7 7 8 8 9 9 8 8 7 7 8 9 11 12 12 11 10 10 9 8 9 8 6 7 11 11 10 10 9 9 8 8 10 12 12 11 10 11 10 8 6 6 6 6 5 5 5 4 4 5 5 3 5 8 8 7 5 5 4 3 3 3 3 3 3 3 3 4 5
18 21 21 21 18 12 10 12 11 13 13 11 10 10 8 7 7 7 8 8 9 9 8 9 8 8 8 8 10 12 12 11 11 11 9 9 9 8 7 9 12 11 10 10 10 9 9 9 10 11 11 12 12 11 8 5 4 6 8 7 7 7 7 7 6 7 7 6 6 7 9 8 6 6 5 4 2 1 2 2 3 3 4 4 5
19 21 22 21 18 14 13 14 16 16 15 14 12 11 9 7 7 7 8 8 8 7 8 9 9 9 9 9 10 11 11 10 10 11 10 8 8 8 8 9 10 9 8 8 10 10 10 10 10 10 10 9 12 11 8 5 5 7 9 8 7 8 9 9 8 8 9 10 10 9 10 9 7 8 7 6 4 2 1 1 1 2 3 4 5
19 22 25 22 19 19 19 18 18 16 14 13 12 10 8 7 7 7 7 7 6 5 5 6 6 8 9 9 9 10 10 8 9 11 10 9 9 9 9 10 10 9 8 8 9 9 9 10 10 10 10 9 10 10 7 6 6 6 7 7 7 8 9 9 9 9 10 11 12 11 9 9 9 9 9 8 7 5 4 4 4 4 4 4 5
19 22 26 25 22 22 21 18 17 16 14 12 11 10 8 8 8 7 6 5 4 3 3 3 3 5 6 7 6 8 10 8 8 9 10 10 10 9 10 11 11 10 9 9 9 9 9 10 11 10 10 9 8 8 7 7 6 4 4 5 6 8 8 9 10 11 11 11 10 11 10 9 9 9 10 11 9 8 8 7 8 8 7 7 7
19 20 23 25 25 22 20 20 18 16 14 12 11 11 10 9 8 7 6 5 3 2 2 1 1 2 4 4 4 6 7 6 6 8 10 11 10 9 10 11 11 10 10 9 10 11 10 12 13 11 10 8 7 8 8 7 6 4 5 6 6 7 9 9 10 10 10 9 7 8 10 10 10 10 12 11 10 12 12 10 11 11 11 11 10
20 20 22 24 24 22 22 21 19 17 16 15 13 12 11 9 8 7 6 5 3 2 2 2 1 1 1 2 2 3 4 4 5 7 9 10 9 8 9 10 10 10 9 9 10 11 11 13 14 12 10 8 8 9 9 7 5 5 7 8 7 8 9 9 9 7 7 7 6 6 6 8 11 10 9 9 11 13 13 12 12 13 13 14 14
22 22 24 25 24 24 24 23 22 21 18 17 14 11 10 8 8 7 5 4 3 1 1 1 1 1 0 2 2 4 4 4 5 6 8 8 7 7 8 9 9 9 8 8 9 10 13 14 13 11 10 9 10 10 10 9 8 8 9 8 8 8 6 6 5 4 5 5 5 5 4 5 8 9 9 9 10 12 13 13 14 14 15 16 17
25 25 25 25 25 24 25 25 24 21 19 16 14 11 9 7 6 6 5 3 3 2 2 1 2 3 1 2 2 3 3 3 5 6 7 7 7 7 7 7 6 6 6 7 8 10 12 12 11 11 10 11 11 11 11 11 11 9 7 7 7 5 4 4 4 2 1 2 3 3 3 3 5 7 9 9 10 11 12 12 12 13 14 16 18
26 27 26 25 24 24 24 24 23 21 19 16 13 12 11 8 6 5 4 3 3 3 3 3 2 5 4 2 2 2 3 3 4 5 6 7 6 6 4 4 4 4 4 6 7 9 9 9 9 10 9 9 10 11 10 10 10 8 7 7 6 4 2 2 1 1 2 2 2 2 4 4 4 4 6 8 9 10 10 10 10 11 11 11 13
27 28 27 26 24 24 23 23 22 20 18 15 14 13 11 8 6 4 3 2 2 3 4 4 3 5 6 6 5 4 5 5 5 4 3 4 5 4 3 2 2 3 4 6 8 9 9 9 9 8 7 7 7 7 8 9 10 8 7 7 5 1 0 2 3 3 3 2 1 3 5 6 6 4 5 6 7 8 8 9 9 9 8 8 8
29 29 27 26 25 23 22 21 22 20 18 16 15 12 9 7 6 4 2 1 2 4 5 5 4 3 4 6 7 7 7 6 6 4 3 2 2 2 3 3 4 4 5 6 7 8 8 8 7 7 6 6 4 4 5 8 9 8 8 6 3 1 2 3 3 3 2 1 1 3 4 4 5 5 4 5 6 6 6 5 6 5 5 6 6
30 29 27 26 25 23 21 21 21 20 18 16 15 10 7 5 4 3 3 2 3 4 4 4 4 3 3 2 3 4 5 5 5 5 4 3 2 1 1 1 2 3 4 4 4 5 5 5 5 4 4 4 3 3 4 4 5 7 7 4 2 2 2 1 2 2 1 1 2 3 3 2 2 3 4 4 4 5 5 4 4 4 5 5 6
31 30 28 26 25 22 21 21 21 20 17 16 13 9 7 5 3 3 3 4 4 6 4 3 3 3 3 2 1 0 2 2 3 4 5 4 3 2 1 0 0 1 2 1 2 2 2 2 1 1 1 1 3 2 1 2 3 4 5 4 2 2 1 2 1 1 2 4 5 6 5 2 2 3 3 3 4 4 4 5 5 6 6 6 7
31 31 30 29 28 26 23 22 21 20 17 15 12 8 7 6 5 4 1 2 3 5 3 1 1 1 1 1 1 0 0 1 3 5 6 6 4 2 2 1 2 3 3 3 3 3 4 5 5 5 4 4 4 3 3 5 6 6 6 4 3 2 3 3 3 4 6 7 6 8 7 3 2 2 2 3 3 4 4 5 6 6 7 7 8
32 33 34 33 31 27 24 22 20 19 17 15 13 10 8 7 5 6 5 3 3 4 3 2 1 0 0 1 1 1 0 0 2 4 5 6 4 3 3 5 5 6 5 4 4 5 7 8 8 8 7 7 6 5 5 6 8 8 7 6 5 4 4 5 6 6 6 6 6 9 10 7 7 8 7 6 5 4 4 4 4 4 4 5 6
33 34 35 32 28 23 20 21 20 17 17 16 14 11 10 9 7 7 7 5 4 4 4 3 2 1 1 1 1 0 1 2 2 4 5 5 4 3 4 6 7 6 5 3 4 7 9 9 10 10 10 11 10 10 10 10 10 10 10 8 6 4 4 4 4 4 4 5 6 8 9 9 11 12 12 11 10 9 9 7 6 5 4 3 4
31 30 30 28 26 23 21 23 23 20 19 19 16 13 11 10 9 9 8 7 5 4 4 3 2 1 2 2 1 1 3 4 5 6 6 5 5 5 5 6 6 5 4 4 6 9 10 9 9 9 10 11 13 13 14 14 13 11 10 7 5 3 3 4 4 3 4 4 5 7 8 10 12 13 12 12 11 10 10 9 9 9 8 6 5
Wind_Direction
174 175 177 175 173 172 174 174 174 172 168 164 159 157 152 148 147 147 146 145 144 143 142 143 144 145 143 140 135 130 127 124 123 121 122 123 125 131 135 134 133 134 134 132 133 137 135 137 156 164 164 160 137 128 131 127 118 109 103 103 108 101 89 83 78 73 75 79 79 80 80 80 81 81 82 82 80 79 79 79 79 76 73 72 69
170 174 178 176 174 173 176 175 175 173 170 167 162 162 159 156 152 150 149 146 143 141 140 141 141 139 136 133 130 128 125 122 120 119 118 118 119 126 134 134 133 133 135 134 136 140 140 143 152 157 160 161 142 130 135 130 122 113 106 109 113 104 96 92 83 75 71 73 75 76 78 79 81 81 80 81 80 79 79 78 77 74 72 71 68
167 172 177 177 174 174 177 176 176 175 172 169 166 166 164 162 158 153 150 147 144 141 140 140 138 135 131 129 128 127 127 126 125 123 119 116 116 119 125 128 130 130 130 130 137 142 140 145 150 150 154 157 144 135 140 135 126 118 111 114 114 108 104 98 88 81 75 73 73 74 76 77 79 80 80 80 80 80 79 79 78 76 74 72 68
169 171 176 176 174 176 177 177 177 176 173 171 170 169 167 165 161 157 151 149 145 142 141 138 137 134 132 130 129 130 130 130 129 127 122 119 118 120 121 121 124 128 127 121 124 137 141 143 145 143 147 154 150 147 148 140 132 124 119 116 114 113 110 102 94 86 81 76 73 72 73 75 78 79 79 80 81 81 79 78 80 80 78 75 71
171 171 174 175 175 177 178 179 179 177 174 173 172 171 169 165 161 158 152 149 146 143 142 139 139 137 135 134 132 133 133 132 132 130 125 122 119 119 119 116 115 117 121 116 110 118 135 138 139 141 146 155 157 158 153 145 138 131 126 121 118 116 112 105 98 91 85 80 75 73 72 73 78 82 81 81 83 82 79 76 77 79 79 78 76
172 172 174 175 176 177 179 180 181 178 175 174 173 172 169 165 159 156 153 150 147 145 143 143 143 142 141 139 137 137 135 133 132 131 128 125 122 120 117 116 116 111 111 112 106 103 108 116 129 139 144 153 157 161 157 148 142 136 135 131 125 120 115 108 102 96 89 83 78 75 73 72 75 83 84 82 83 82 80 78 77 77 78 79 78
174 174 175 177 177 177 180 181 182 178 175 175 174 173 170 164 159 155 154 153 151 148 146 146 147 147 147 144 142 140 138 134 133 132 130 127 126 125 122 120 121 115 110 108 105 99 95 92 101 130 141 148 153 159 159 151 145 142 144 138 131 126 119 111 106 102 95 87 81 76 73 71 72 79 81 80 81 81 82 81 78 78 79 78 78
175 176 176 178 178 177 179 181 183 179 176 176 176 174 171 165 160 156 155 154 154 152 149 148 148 149 148 148 146 143 140 137 135 133 130 128 127 128 128 125 124 120 115 114 112 108 96 80 72 103 138 143 148 158 160 156 154 152 150 143 137 133 126 117 112 107 100 92 84 78 74 72 70 73 76 78 81 83 83 84 82 79 79 78 77
176 177 177 178 178 177 180 182 184 180 176 177 177 175 171 167 163 160 157 157 157 155 154 152 152 152 151 151 149 146 142 140 140 138 134 131 128 127 129 128 128 123 121 123 118 113 106 75 56 71 129 141 147 157 160 164 167 162 153 146 144 141 133 124 118 112 106 97 88 82 78 73 68 69 72 76 80 84 85 84 85 82 80 79 77
178 177 176 178 177 177 180 183 184 181 177 178 177 174 171 168 166 164 162 161 160 159 160 159 159 159 157 154 149 146 144 145 146 149 146 139 135 129 128 127 128 126 126 130 124 119 112 67 42 53 111 143 153 160 164 168 172 169 151 146 151 147 139 131 123 115 110 103 94 83 77 72 67 67 68 73 78 84 88 85 86 85 82 80 78
178 177 176 178 178 179 181 183 184 181 179 178 177 175 171 170 168 167 165 161 160 160 162 163 163 161 158 151 145 140 137 139 142 147 148 143 140 135 132 130 133 134 133 135 132 132 120 68 21 45 80 146 164 164 170 171 171 177 148 143 154 148 143 137 128 118 114 108 99 88 78 73 67 67 65 67 75 84 92 91 88 87 85 82 79
178 177 178 180 179 180 182 183 182 179 180 180 178 175 171 171 171 168 164 157 156 159 162 163 162 159 152 146 139 134 131 129 132 134 136 135 134 133 132 133 139 141 139 143 145 146 138 127 307 51 67 140 178 172 175 174 175 185 145 138 150 147 146 139 129 121 117 114 106 95 85 78 69 66 63 59 68 81 91 94 90 87 87 83 81
177 178 179 179 179 181 182 181 179 178 180 180 179 176 172 172 172 169 162 154 155 158 161 160 157 152 146 142 137 133 130 128 129 128 128 127 129 132 134 136 140 141 142 150 160 155 148 157 177 187 105 136 189 189 182 180 186 188 142 137 148 148 148 135 125 122 118 119 116 107 92 82 76 69 61 56 60 68 81 90 90 90 90 87 84
176 177 178 178 178 179 179 179 177 178 179 179 179 176 172 173 173 168 160 155 157 158 158 156 151 147 143 140 136 133 130 128 128 128 127 126 128 132 137 142 144 145 148 155 162 154 149 163 180 186 192 183 189 201 198 194 200 191 149 141 144 144 144 133 120 113 110 115 118 117 102 83 80 76 67 59 55 58 66 79 87 93 93 92 90
176 176 177 178 178 176 176 180 179 179 181 178 177 175 173 173 172 166 160 158 159 158 155 152 148 145 142 137 133 132 128 126 126 129 129 128 129 130 135 142 147 150 155 159 155 145 136 146 173 182 184 191 186 200 207 208 214 198 159 147 141 138 138 131 115 100 98 104 110 114 113 98 77 71 73 69 55 54 59 69 81 94 95 95 94
178 176 177 179 178 174 175 179 180 181 180 174 174 174 172 172 171 165 161 161 159 155 152 149 148 145 142 135 132 130 128 128 130 132 130 130 129 128 133 137 145 149 154 155 146 134 123 123 150 172 175 184 187 196 205 212 223 211 167 154 144 139 135 126 112 97 93 97 104 107 113 125 104 15 41 56 43 41 55 70 78 87 92 95 94
181 179 179 181 177 173 173 176 177 177 175 171 173 174 172 172 169 164 162 162 157 152 150 148 148 147 141 135 132 130 131 136 136 134 130 132 130 128 133 137 144 147 148 148 145 134 123 120 131 163 173 181 188 193 201 208 224 224 181 160 152 145 134 122 111 102 91 90 97 104 115 131 166 296 342 10 15 21 34 62 76 79 84 90 93
183 181 181 183 177 175 175 175 174 171 171 170 172 173 172 170 167 164 163 161 155 151 150 148 149 147 144 139 135 134 136 140 137 133 132 135 133 131 134 138 143 142 142 142 144 135 123 124 124 159 174 180 187 191 196 202 219 230 201 168 160 150 134 123 115 106 93 88 93 101 113 130 170 233 292 331 357 10 11 18 59 75 80 84 88
184 183 181 179 176 177 178 174 174 170 168 168 170 172 169 166 165 166 163 160 154 152 151 149 150 149 150 147 143 144 144 144 140 137 136 138 137 136 137 137 142 140 142 140 140 136 128 130 129 158 174 179 186 189 192 197 212 226 215 183 169 155 136 127 119 110 101 94 93 97 110 138 171 214 252 298 342 356 359 358 21 61 82 83 84
185 185 182 178 174 175 176 172 173 172 168 168 169 167 164 164 164 164 162 160 154 152 153 152 154 154 156 157 155 157 160 158 151 147 141 144 147 143 143 135 140 146 149 149 143 143 140 139 137 158 175 179 183 186 188 191 203 217 215 192 175 158 138 132 123 113 106 99 94 93 104 144 181 208 228 247 304 338 345 345 359 34 69 83 88
188 188 184 181 177 174 175 173 172 172 170 168 163 159 164 165 162 163 162 160 155 153 157 159 161 160 163 164 162 169 177 171 159 158 150 154 166 157 157 135 135 144 149 155 158 157 154 149 145 159 178 180 183 185 186 188 198 208 205 187 173 157 141 135 125 117 110 101 95 90 98 144 192 209 220 220 212 263 313 320 329 354 14 89 95
190 189 187 181 174 172 176 175 173 174 171 162 155 158 164 163 158 163 164 161 158 157 160 163 164 163 165 166 166 181 194 182 163 170 166 173 186 177 170 155 144 142 147 157 168 169 162 159 151 162 177 179 183 185 185 188 195 203 198 182 169 154 144 140 128 119 113 106 98 89 93 137 196 211 219 210 193 199 238 291 305 312 292 224 119
191 187 182 177 174 174 173 175 180 176 166 157 158 160 158 158 159 164 165 162 161 162 161 160 161 163 169 173 177 187 193 182 173 188 188 198 203 204 183 160 149 144 153 160 168 175 162 165 160 164 175 177 182 184 185 186 188 195 196 185 172 158 149 144 133 121 115 109 102 89 83 115 193 208 215 206 190 187 195 233 275 297 307 278 189
190 181 173 176 179 175 171 178 185 169 156 163 168 161 155 159 164 166 165 163 163 164 160 155 160 167 177 190 193 191 189 178 187 203 192 203 212 210 192 173 165 158 170 168 164 179 164 169 168 169 176 178 182 183 185 185 182 187 188 180 174 167 160 152 138 124 114 107 102 88 78 91 172 199 202 198 191 188 187 202 234 265 299 314 238
183 173 170 181 180 174 174 178 176 158 156 171 173 162 160 165 166 168 166 164 164 163 158 154 164 176 187 198 198 194 189 179 191 211 201 206 220 217 200 189 188 184 189 185 166 175 171 174 171 171 176 179 182 180 183 184 181 184 182 170 169 171 167 157 142 128 118 109 101 90 81 83 117 185 189 189 192 191 192 198 208 235 271 308 287
181 173 176 186 178 174 176 168 161 163 163 170 177 170 167 169 169 171 168 166 164 163 163 160 171 187 194 199 198 194 192 183 184 200 204 218 231 226 213 201 203 201 201 200 183 181 180 177 175 174 177 179 181 178 180 181 179 182 181 171 166 168 169 161 148 137 126 116 103 93 91 89 94 132 158 173 192 200 204 206 207 228 264 286 296
187 176 181 186 175 173 172 158 157 172 170 171 183 179 172 172 171 173 169 169 170 167 169 170 182 201 205 198 195 201 205 199 195 200 209 232 241 231 220 211 211 208 202 208 205 195 183 172 177 177 175 177 180 177 179 181 176 177 179 172 167 166 169 165 154 142 129 120 107 100 99 99 100 106 115 137 183 203 210 215 213 222 249 270 284
187 172 185 188 176 174 165 155 156 170 173 176 187 182 172 174 173 175 171 171 172 168 171 179 188 204 215 205 197 209 216 213 215 221 225 242 249 239 229 217 216 214 206 216 214 200 184 169 172 173 168 168 173 175 181 183 177 175 180 175 174 176 173 169 167 153 135 127 120 116 112 107 104 101 98 96 124 184 209 228 227 222 239 264 278
181 173 183 183 181 183 171 161 158 165 172 176 186 183 174 176 177 175 168 169 170 168 180 196 206 211 216 217 215 218 223 225 231 241 245 258 259 253 245 226 218 217 208 212 207 199 183 169 169 167 162 163 168 175 183 187 182 181 191 192 198 208 203 194 193 173 146 142 143 138 136 126 111 100 93 87 87 102 134 231 239 236 249 265 278
172 175 178 178 182 187 185 177 168 168 173 178 181 178 175 176 177 175 174 180 179 185 198 213 228 233 231 230 230 226 230 236 240 248 257 265 261 260 255 236 219 215 206 197 193 193 182 173 171 166 165 171 177 182 186 190 190 191 203 209 210 213 213 213 210 188 161 158 164 156 150 144 129 114 103 93 87 87 80 69 98 283 285 284 287
151 160 176 182 174 177 193 196 198 192 180 182 181 177 175 169 173 184 194 199 198 211 220 228 236 242 247 247 244 238 235 240 240 243 249 252 253 257 256 240 216 209 204 195 190 194 186 177 175 172 175 181 183 184 184 190 194 195 202 205 204 206 206 223 224 197 175 175 174 169 162 153 144 129 118 107 99 97 86 75 77 45 346 328 314
147 152 170 180 164 168 192 194 209 212 195 192 193 188 187 180 180 187 201 213 218 228 230 232 238 241 248 251 253 250 242 243 246 244 241 238 236 246 257 247 217 198 196 198 197 202 200 186 182 184 189 191 190 188 187 189 192 198 204 203 204 210 209 233 263 240 196 188 173 169 169 160 156 140 127 116 107 108 102 94 92 53 16 356 341
153 156 161 168 160 163 182 181 194 207 202 205 208 201 197 197 197 197 214 225 226 234 234 235 238 239 244 250 255 254 248 244 245 246 238 234 230 235 250 235 214 206 198 202 205 205 206 198 191 196 201 203 201 196 197 197 196 207 217 217 218 224 235 245 288 302 252 203 176 177 172 162 165 151 133 117 98 92 86 69 54 23 2 359 352
165 164 155 154 156 160 172 170 174 189 194 201 206 207 204 201 203 207 220 229 232 239 243 244 244 243 248 254 257 254 250 245 242 242 236 235 234 233 233 212 208 210 201 201 208 210 208 207 205 208 214 218 217 211 211 211 209 225 231 234 241 238 248 265 270 278 290 279 208 201 184 168 169 162 147 121 88 70 62 44 28 2 345 353 352
171 167 157 152 151 154 164 162 171 184 181 183 198 207 209 202 194 205 222 236 246 251 253 253 254 258 264 263 259 254 252 247 241 240 238 238 240 241 234 214 212 212 201 195 204 216 214 210 212 219 226 231 236 233 232 240 246 254 252 247 253 255 255 261 266 266 272 277 260 228 203 190 177 170 171 161 140 86 58 36 20 358 340 333 331
173 168 162 154 139 137 155 168 182 186 178 181 195 199 198 188 185 211 236 246 252 254 251 251 250 251 256 257 254 252 254 247 236 234 235 234 237 247 238 220 218 214 201 195 201 212 215 212 213 224 233 238 246 246 247 253 245 252 256 255 263 268 265 260 260 265 269 273 271 244 214 208 198 186 188 194 199 201 206 266 305 325 324 307 303
179 177 165 154 148 156 168 174 180 182 179 184 192 194 195 194 200 220 234 235 237 245 247 246 242 235 240 249 250 248 249 243 228 225 228 228 232 243 233 214 213 209 203 205 206 206 210 218 220 225 235 242 247 247 249 253 246 249 253 257 268 268 267 269 270 270 273 274 271 255 230 219 215 205 203 210 215 223 237 253 251 254 267 275 288
184 186 171 162 165 171 174 173 173 177 180 185 191 197 204 208 210 213 220 221 224 250 264 256 246 234 237 248 249 243 241 233 220 221 223 224 230 233 220 207 207 209 208 208 214 210 207 223 229 230 239 246 252 258 261 253 242 250 264 267 269 267 268 273 279 282 282 276 265 258 247 238 236 226 223 227 233 242 249 256 255 247 247 253 264
186 191 182 171 168 169 174 174 174 178 180 185 195 200 206 207 200 195 200 204 212 241 266 312 316 265 252 250 242 242 241 224 209 217 217 220 227 222 211 207 209 219 221 215 218 213 207 223 232 235 242 247 257 266 267 255 239 257 282 277 270 273 281 282 283 287 290 288 283 276 264 260 265 248 235 244 251 251 250 252 256 252 249 253 253
185 186 183 176 173 172 174 175 177 180 181 189 198 200 199 197 192 187 183 180 187 228 253 291 328 343 283 258 205 214 224 211 208 214 211 216 224 218 214 217 219 226 228 221 221 216 213 222 228 234 242 245 247 250 254 246 237 259 270 267 266 272 282 283 281 290 300 309 312 303 283 271 278 272 259 265 264 260 262 263 264 262 257 256 255
186 184 180 178 180 177 174 175 179 181 184 190 194 196 190 182 182 178 166 154 140 108 308 285 203 122 258 248 186 179 185 186 197 201 202 211 220 218 224 230 230 230 224 222 229 227 223 223 225 232 238 240 240 239 242 240 241 256 257 255 262 266 271 275 282 305 313 322 327 321 318 288 283 285 282 279 275 273 276 273 272 271 265 259 258
189 187 183 181 183 180 177 178 180 183 188 191 190 188 177 162 158 147 131 116 104 85 30 16 170 166 174 244 219 197 184 169 166 174 186 200 208 216 225 226 225 226 221 222 233 234 232 232 235 240 241 242 242 239 241 246 250 251 237 233 248 248 244 262 286 322 340 6 2 353 350 311 284 281 279 275 274 276 278 277 280 284 280 273 267
192 190 187 185 185 185 184 184 183 186 190 192 190 183 169 154 140 128 119 91 67 55 30 32 142 171 176 198 212 179 159 158 155 162 178 192 203 208 204 190 191 206 209 217 229 236 239 241 241 242 244 245 245 244 243 246 247 236 216 211 221 231 228 225 222 83 82 75 38 10 5 349 327 301 280 271 268 272 280 285 293 297 296 291 276
195 191 189 190 191 189 190 188 188 191 191 190 187 177 163 152 144 139 137 110 54 33 21 27 98 159 180 189 191 176 158 151 147 150 169 193 211 220 223 221 227 229 219 220 227 233 237 240 239 237 241 239 239 247 246 239 234 226 217 207 200 211 138 144 138 120 102 81 38 3 360 355 350 337 306 291 283 283 286 289 295 299 300 300 283
196 193 192 195 196 194 193 192 193 193 191 187 181 172 154 146 148 145 141 100 33 23 20 19 52 120 172 190 196 195 193 193 195 205 213 210 214 234 253 259 256 247 236 231 227 227 230 235 237 235 236 235 228 242 251 244 238 230 220 201 173 148 162 145 127 123 117 60 355 351 353 350 345 339 329 319 309 306 305 299 301 305 303 304 297
196 195 197 199 198 197 197 197 197 194 191 185 179 169 150 135 119 98 70 51 26 8 17 23 30 63 97 151 192 197 200 205 209 211 205 189 160 142 184 249 248 237 231 233 222 216 221 225 232 232 233 233 221 230 251 243 228 220 211 192 150 150 156 117 114 131 119 34 28 19 13 350 323 324 330 334 327 321 321 323 323 319 309 302 299
199 197 199 200 199 201 200 199 200 196 190 187 183 172 155 149 134 96 49 33 16 356 5 43 41 48 63 64 38 236 177 154 141 138 138 140 133 127 132 246 272 198 196 187 167 166 165 157 145 151 163 172 180 185 179 139 151 174 180 169 150 143 75 7 34 111 116 96 70 56 45 359 305 304 313 320 320 315 313 317 319 316 312 307 302
202 200 201 200 199 201 197 194 200 200 194 192 192 185 171 170 178 185 194 1 351 341 334 115 79 43 29 26 342 286 130 109 113 120 126 137 141 125 122 127 117 119 124 117 116 115 108 107 104 105 109 114 125 124 113 108 106 118 139 146 132 88 50 47 66 91 106 99 74 70 70 44 13 12 351 333 324 317 311 309 309 308 308 307 304
205 203 202 199 195 192 186 183 189 197 199 202 203 199 191 187 196 209 215 232 283 309 285 199 157 178 320 333 282 261 236 187 126 126 131 137 130 98 111 134 133 128 126 120 115 112 108 108 109 109 108 112 117 115 114 112 106 109 116 114 104 92 80 77 85 95 92 68 53 77 92 88 74 72 69 65 58 44 29 13 355 336 319 306 301
205 204 201 198 194 190 188 188 189 194 199 205 211 211 205 202 209 221 225 237 268 282 253 212 199 216 293 310 289 201 167 179 148 133 127 119 106 90 111 133 142 146 151 146 131 128 124 117 115 113 108 108 113 114 114 113 112 113 113 112 111 108 96 84 89 87 55 34 44 78 100 103 92 88 85 81 76 71 65 59 50 42 30 359 333
206 206 203 202 201 198 197 196 194 196 197 199 205 210 211 217 228 234 237 255 279 279 243 231 254 276 299 307 291 134 133 132 132 131 124 113 110 107 114 128 140 149 146 133 129 133 134 128 123 120 115 112 112 114 115 114 114 116 117 119 119 102 86 76 71 52 31 31 53 82 104 113 107 101 95 89 83 76 71 65 58 52 43 33 18
Height
1497 1500 1502 1504 1506 1507 1509 1510 1512 1513 1514 1515 1516 1517 1517 1518 1518 1519 1519 1520 1520 1521 1522 1522 1523 1524 1524 1525 1526 1526 1527 1527 1528 1529 1529 1530 1531 1532 1533 1534 1535 1536 1537 1538 1539 1540 1541 1541 1542 1543 1543 1544 1544 1544 1544 1545 1546 1546 1547 1547 1547 1547 1547 1548 1548 1547 1547 1547 1547 1546 1546 1546 1546 1546 1546 1546 1545 1545 1545 1545 1545 1544 1544 1544 1543
1494 1498 1501 1503 1505 1507 1509 1510 1512 1513 1514 1515 1516 1517 1517 1518 1519 1519 1520 1520 1521 1522 1522 1523 1524 1525 1525 1526 1526 1527 1527 1528 1529 1529 1530 1530 1531 1532 1533 1534 1535 1537 1537 1538 1539 1540 1541 1541 1542 1543 1544 1544 1545 1545 1545 1546 1546 1547 1548 1548 1548 1548 1549 1549 1549 1549 1549 1548 1548 1548 1548 1548 1548 1548 1548 1547 1547 1546 1546 1546 1546 1546 1545 1545 1545
1494 1497 1500 1503 1505 1507 1508 1510 1511 1512 1514 1514 1516 1516 1517 1518 1519 1520 1520 1521 1522 1523 1523 1524 1525 1525 1526 1526 1527 1527 1528 1528 1529 1529 1530 1530 1531 1532 1533 1535 1536 1537 1538 1539 1539 1540 1541 1542 1542 1543 1544 1545 1545 1545 1546 1546 1547 1548 1548 1549 1549 1549 1550 1550 1550 1550 1550 1550 1549 1549 1549 1549 1549 1549 1549 1549 1548 1548 1548 1547 1547 1547 1547 1547 1546
1496 1497 1500 1503 1505 1507 1509 1510 1511 1512 1513 1514 1515 1516 1517 1518 1519 1520 1521 1522 1522 1523 1524 1525 1525 1526 1527 1527 1527 1528 1528 1529 1529 1530 1530 1531 1532 1532 1534 1535 1536 1537 1538 1539 1540 1541 1541 1542 1542 1543 1544 1545 1545 1546 1546 1547 1548 1548 1549 1549 1550 1550 1551 1551 1551 1551 1551 1551 1551 1550 1550 1550 1550 1550 1550 1550 1550 1549 1549 1548 1548 1548 1548 1548 1547
1496 1498 1500 1502 1505 1507 1508 1510 1511 1512 1513 1514 1515 1516 1517 1518 1519 1520 1521 1522 1523 1524 1524 1525 1526 1527 1527 1528 1528 1528 1529 1530 1530 1531 1531 1532 1532 1533 1534 1535 1536 1537 1538 1539 1540 1541 1542 1542 1543 1543 1544 1545 1546 1546 1547 1548 1549 1549 1550 1550 1551 1551 1551 1552 1552 1552 1552 1552 1552 1551 1551 1551 1551 1551 1551 1551 1551 1551 1550 1550 1550 1549 1549 1549 1549
1497 1499 1501 1503 1505 1507 1508 1510 1511 1512 1513 1514 1515 1516 1517 1518 1520 1521 1522 1522 1523 1524 1525 1526 1527 1527 1528 1529 1529 1530 1530 1531 1531 1532 1533 1533 1533 1534 1535 1536 1537 1538 1539 1540 1540 1541 1542 1543 1543 1543 1544 1545 1546 1546 1547 1548 1549 1550 1551 1551 1552 1552 1552 1553 1553 1553 1553 1553 1553 1552 1552 1552 1552 1552 1552 1552 1552 1552 1552 1551 1551 1550 1550 1550 1550
1497 1499 1501 1503 1505 1506 1508 1510 1511 1512 1514 1515 1516 1517 1517 1519 1520 1521 1522 1523 1524 1525 1526 1527 1528 1528 1529 1530 1530 1531 1532 1532 1533 1533 1534 1534 1534 1534 1535 1536 1537 1538 1539 1540 1541 1541 1542 1543 1544 1544 1545 1545 1546 1547 1548 1549 1550 1551 1552 1552 1553 1553 1553 1553 1554 1554 1554 1554 1553 1553 1553 1553 1553 1553 1553 1553 1553 1553 1553 1553 1552 1552 1551 1551 1551
1497 1499 1501 1503 1504 1506 1508 1509 1511 1512 1514 1515 1516 1517 1518 1519 1520 1522 1523 1524 1525 1526 1527 1528 1529 1529 1530 1531 1531 1532 1533 1533 1534 1534 1535 1535 1535 1535 1536 1537 1538 1538 1539 1540 1541 1542 1543 1544 1545 1545 1545 1545 1546 1547 1548 1549 1550 1551 1552 1553 1554 1554 1554 1554 1554 1555 1555 1555 1554 1554 1554 1554 1554 1554 1554 1554 1554 1554 1554 1554 1554 1553 1553 1553 1552
1497 1499 1501 1503 1505 1506 1508 1509 1510 1511 1513 1515 1516 1517 1519 1520 1521 1522 1523 1524 1525 1527 1528 1529 1530 1530 1531 1531 1532 1532 1533 1534 1534 1535 1536 1536 1536 1536 1537 1537 1538 1539 1540 1540 1541 1542 1543 1545 1545 1545 1545 1546 1546 1547 1548 1549 1550 1551 1553 1554 1554 1554 1554 1555 1555 1555 1555 1555 1555 1555 1555 1555 1555 1555 1555 1555 1555 1555 1555 1555 1555 1555 1554 1554 1553
1498 1499 1501 1503 1505 1506 1508 1509 1510 1511 1512 1514 1516 1517 1519 1520 1522 1523 1524 1524 1526 1527 1529 1530 1530 1531 1531 1532 1532 1533 1533 1534 1534 1535 1536 1536 1537 1537 1538 1539 1539 1540 1540 1541 1542 1543 1544 1545 1546 1546 1546 1547 1547 1548 1548 1549 1550 1552 1554 1555 1555 1555 1555 1555 1556 1556 1556 1556 1556 1556 1556 1556 1556 1556 1556 1556 1556 1556 1556 1556 1556 1556 1556 1555 1555
1499 1501 1502 1504 1505 1506 1507 1509 1510 1512 1513 1514 1516 1517 1518 1520 1522 1523 1524 1525 1526 1528 1529 1530 1530 1531 1531 1532 1532 1533 1533 1533 1534 1535 1536 1536 1537 1538 1538 1539 1540 1540 1541 1541 1542 1543 1544 1545 1546 1547 1547 1547 1548 1548 1549 1550 1550 1552 1554 1556 1555 1555 1555 1556 1556 1556 1557 1557 1557 1557 1557 1557 1557 1557 1557 1557 1557 1557 1557 1557 1557 1557 1557 1556 1556
1500 1501 1503 1504 1505 1506 1507 1509 1511 1513 1514 1515 1516 1517 1518 1520 1522 1523 1525 1526 1527 1529 1530 1530 1530 1531 1532 1532 1533 1533 1533 1534 1534 1535 1536 1536 1537 1538 1538 1539 1540 1540 1541 1542 1543 1544 1545 1545 1546 1547 1547 1548 1548 1549 1549 1550 1551 1552 1555 1556 1556 1556 1556 1556 1557 1557 1558 1558 1558 1558 1558 1558 1558 1558 1559 1559 1559 1558 1558 1558 1557 1557 1558 1557 1557
1500 1502 1504 1506 1507 1508 1510 1511 1512 1513 1515 1516 1517 1517 1518 1520 1521 1523 1525 1526 1528 1529 1530 1530 1531 1532 1533 1533 1533 1534 1534 1534 1535 1536 1536 1537 1537 1538 1538 1539 1540 1541 1541 1542 1543 1544 1545 1546 1546 1547 1547 1548 1548 1549 1550 1550 1551 1553 1555 1556 1556 1557 1556 1557 1557 1558 1558 1558 1558 1559 1558 1559 1559 1559 1559 1560 1560 1560 1559 1558 1558 1558 1558 1558 1558
1500 1502 1504 1506 1507 1510 1512 1513 1513 1514 1515 1516 1517 1518 1519 1520 1521 1523 1525 1526 1528 1529 1530 1531 1532 1533 1534 1534 1535 1535 1535 1535 1536 1536 1537 1537 1537 1538 1538 1539 1540 1541 1542 1542 1543 1544 1545 1546 1546 1547 1547 1548 1549 1550 1550 1551 1551 1553 1555 1556 1557 1557 1557 1558 1558 1558 1559 1559 1559 1559 1559 1559 1559 1560 1560 1560 1560 1561 1560 1560 1559 1559 1559 1559 1559
1500 1501 1503 1504 1506 1508 1512 1513 1514 1514 1515 1516 1517 1519 1520 1521 1521 1523 1525 1526 1528 1529 1531 1532 1533 1534 1535 1535 1535 1536 1536 1536 1536 1537 1537 1537 1538 1538 1539 1539 1540 1541 1542 1543 1543 1544 1545 1546 1547 1547 1547 1548 1549 1550 1551 1551 1552 1553 1556 1556 1557 1558 1558 1558 1559 1559 1559 1560 1560 1560 1560 1560 1560 1560 1561 1561 1561 1561 1561 1561 1561 1560 1560 1560 1560
1500 1502 1504 1505 1506 1507 1510 1512 1513 1515 1517 1518 1520 1521 1522 1522 1523 1524 1525 1526 1528 1530 1531 1533 1534 1534 1535 1536 1536 1536 1536 1536 1536 1537 1537 1538 1538 1539 1539 1540 1540 1541 1542 1543 1544 1545 1546 1546 1547 1547 1547 1548 1549 1550 1551 1552 1552 1554 1556 1557 1557 1558 1558 1559 1559 1559 1559 1560 1560 1560 1560 1561 1561 1561 1561 1562 1562 1562 1562 1562 1562 1561 1561 1561 1561
1501 1503 1505 1506 1507 1508 1509 1511 1511 1513 1517 1520 1522 1524 1523 1524 1524 1525 1525 1526 1528 1530 1532 1533 1534 1535 1535 1536 1536 1536 1536 1536 1536 1537 1538 1538 1538 1539 1539 1539 1540 1541 1542 1543 1544 1545 1546 1547 1547 1547 1548 1548 1549 1550 1551 1552 1552 1554 1556 1557 1558 1558 1559 1560 1560 1560 1560 1560 1560 1561 1561 1561 1561 1561 1562 1562 1563 1563 1563 1563 1563 1562 1562 1562 1561
1502 1503 1505 1506 1508 1509 1511 1512 1512 1513 1516 1520 1522 1523 1523 1523 1524 1525 1525 1526 1528 1530 1532 1533 1534 1535 1535 1536 1536 1536 1536 1536 1537 1537 1538 1538 1539 1539 1539 1539 1539 1540 1541 1542 1544 1545 1546 1547 1547 1547 1548 1548 1549 1549 1550 1552 1553 1554 1556 1558 1558 1559 1559 1560 1560 1560 1560 1560 1560 1560 1561 1561 1561 1562 1562 1563 1563 1563 1564 1564 1563 1563 1563 1563 1562
1502 1504 1505 1507 1509 1510 1511 1512 1513 1513 1515 1518 1520 1522 1522 1522 1523 1525 1526 1527 1528 1530 1531 1533 1534 1535 1535 1535 1536 1536 1537 1537 1537 1537 1538 1539 1539 1539 1539 1539 1539 1540 1541 1542 1543 1545 1546 1547 1547 1548 1548 1548 1549 1549 1550 1552 1553 1554 1556 1558 1559 1559 1560 1560 1560 1560 1560 1560 1560 1560 1561 1561 1562 1562 1563 1563 1564 1564 1564 1564 1564 1564 1564 1563 1563
1502 1503 1504 1506 1508 1510 1512 1513 1513 1514 1516 1517 1519 1522 1523 1524 1524 1525 1526 1527 1528 1530 1531 1533 1534 1535 1535 1535 1536 1536 1537 1537 1537 1538 1538 1538 1539 1540 1540 1540 1540 1540 1541 1542 1543 1544 1546 1547 1547 1548 1548 1549 1549 1549 1550 1552 1553 1554 1556 1558 1559 1560 1560 1561 1561 1561 1561 1561 1560 1560 1561 1561 1562 1562 1563 1563 1564 1564 1565 1565 1565 1564 1564 1564 1564
1500 1500 1501 1503 1507 1510 1513 1514 1514 1516 1516 1517 1520 1523 1525 1526 1525 1526 1527 1528 1529 1531 1532 1533 1534 1535 1535 1536 1537 1537 1537 1538 1538 1538 1539 1539 1539 1540 1540 1540 1540 1541 1542 1542 1543 1544 1546 1547 1547 1548 1548 1549 1549 1550 1550 1552 1553 1554 1556 1558 1559 1560 1561 1561 1561 1561 1561 1561 1560 1560 1561 1561 1561 1562 1562 1563 1564 1564 1565 1565 1565 1565 1565 1565 1565
1497 1499 1500 1502 1505 1508 1511 1515 1516 1516 1517 1520 1522 1523 1525 1526 1526 1527 1528 1529 1531 1532 1533 1534 1535 1536 1536 1536 1537 1538 1538 1539 1539 1539 1539 1540 1540 1540 1541 1541 1541 1542 1542 1543 1544 1545 1546 1547 1547 1547 1548 1549 1550 1550 1551 1552 1553 1554 1556 1558 1559 1560 1561 1561 1561 1561 1561 1561 1561 1560 1560 1561 1561 1562 1562 1563 1564 1564 1565 1565 1565 1565 1565 1565 1565
1497 1498 1501 1503 1505 1506 1509 1513 1515 1517 1520 1523 1524 1523 1524 1525 1526 1527 1528 1530 1531 1532 1533 1534 1535 1536 1536 1537 1538 1538 1538 1539 1539 1539 1539 1540 1540 1541 1541 1542 1542 1542 1543 1544 1544 1545 1546 1547 1548 1548 1548 1549 1550 1550 1551 1552 1553 1554 1556 1558 1559 1560 1561 1562 1562 1562 1562 1561 1561 1560 1560 1561 1561 1562 1563 1563 1564 1564 1565 1565 1566 1566 1565 1565 1566
1495 1497 1502 1505 1505 1505 1507 1511 1514 1518 1522 1524 1524 1523 1523 1524 1525 1527 1528 1530 1531 1533 1534 1535 1536 1536 1537 1537 1538 1538 1538 1539 1539 1539 1540 1540 1541 1541 1542 1543 1543 1543 1544 1544 1544 1545 1546 1548 1548 1548 1548 1549 1549 1550 1551 1552 1553 1554 1556 1558 1559 1560 1561 1562 1562 1562 1562 1562 1561 1561 1561 1561 1561 1562 1563 1563 1564 1564 1565 1565 1565 1566 1566 1566 1566
1496 1498 1503 1506 1505 1506 1506 1509 1516 1521 1522 1523 1524 1524 1524 1524 1525 1527 1528 1530 1531 1533 1534 1535 1535 1536 1537 1537 1537 1538 1538 1539 1540 1540 1540 1540 1541 1542 1543 1544 1544 1544 1544 1544 1545 1546 1547 1548 1549 1549 1549 1549 1549 1550 1551 1552 1553 1554 1556 1557 1559 1560 1561 1562 1562 1562 1562 1562 1562 1561 1561 1561 1561 1561 1562 1563 1564 1564 1565 1565 1565 1565 1566 1566 1566
1501 1503 1505 1505 1506 1507 1507 1511 1518 1522 1521 1522 1524 1525 1525 1525 1526 1527 1529 1530 1532 1533 1534 1534 1535 1535 1536 1537 1537 1538 1539 1540 1540 1540 1540 1541 1541 1542 1543 1544 1544 1544 1545 1545 1545 1546 1547 1548 1549 1549 1549 1549 1550 1550 1551 1552 1553 1554 1555 1557 1559 1560 1561 1562 1562 1563 1563 1562 1562 1562 1561 1561 1561 1561 1562 1563 1564 1564 1565 1565 1565 1565 1566 1566 1566
1507 1509 1509 1509 1509 1509 1510 1514 1518 1520 1520 1521 1523 1524 1525 1526 1526 1528 1529 1530 1531 1532 1533 1534 1535 1535 1536 1537 1537 1538 1539 1540 1540 1541 1541 1541 1542 1542 1543 1544 1544 1545 1545 1545 1546 1546 1547 1548 1549 1549 1550 1550 1550 1550 1551 1552 1553 1553 1555 1557 1559 1560 1561 1562 1562 1563 1563 1562 1562 1562 1562 1561 1561 1561 1562 1563 1563 1564 1564 1565 1565 1566 1566 1566 1566
1509 1511 1513 1514 1515 1513 1513 1514 1516 1518 1520 1521 1523 1525 1526 1527 1528 1529 1529 1530 1531 1532 1533 1534 1535 1535 1536 1537 1537 1538 1539 1540 1541 1541 1542 1542 1542 1543 1543 1544 1544 1545 1545 1546 1546 1547 1547 1548 1549 1550 1550 1551 1551 1551 1551 1551 1552 1553 1555 1557 1559 1560 1561 1562 1562 1562 1563 1563 1562 1562 1562 1562 1562 1562 1562 1563 1563 1564 1564 1565 1565 1565 1566 1566 1566
1510 1512 1513 1516 1517 1516 1515 1516 1517 1520 1522 1523 1525 1527 1528 1529 1529 1530 1531 1531 1531 1532 1533 1533 1534 1535 1536 1537 1538 1539 1539 1540 1541 1541 1541 1542 1542 1543 1544 1544 1545 1545 1546 1546 1546 1547 1548 1548 1549 1550 1551 1551 1551 1551 1551 1552 1553 1554 1556 1557 1559 1560 1561 1562 1562 1562 1562 1563 1563 1562 1562 1562 1562 1562 1562 1563 1563 1564 1564 1565 1565 1565 1566 1566 1566
1512 1514 1515 1515 1516 1516 1517 1519 1521 1522 1523 1524 1526 1528 1529 1530 1531 1531 1531 1532 1532 1532 1533 1534 1534 1535 1536 1537 1538 1539 1539 1540 1541 1541 1541 1541 1542 1543 1544 1544 1545 1546 1546 1546 1547 1547 1548 1549 1549 1550 1551 1552 1552 1552 1552 1552 1554 1555 1556 1558 1559 1560 1560 1561 1562 1562 1562 1562 1563 1563 1562 1562 1562 1562 1562 1563 1563 1564 1564 1565 1565 1565 1566 1566 1566
1511 1515 1516 1516 1516 1518 1519 1521 1522 1523 1524 1526 1528 1529 1530 1530 1531 1532 1532 1532 1532 1533 1533 1534 1534 1535 1535 1536 1537 1538 1539 1539 1540 1540 1541 1541 1542 1543 1544 1545 1545 1546 1547 1547 1547 1548 1548 1549 1550 1551 1551 1552 1552 1553 1553 1554 1555 1556 1557 1558 1559 1560 1560 1561 1561 1561 1562 1562 1562 1563 1562 1562 1562 1562 1562 1562 1563 1564 1564 1565 1565 1565 1565 1565 1566
1508 1511 1514 1516 1518 1521 1522 1522 1523 1523 1524 1526 1528 1529 1530 1531 1532 1533 1533 1533 1532 1533 1533 1533 1534 1535 1535 1535 1536 1538 1538 1538 1539 1540 1540 1541 1541 1542 1543 1545 1545 1546 1547 1547 1548 1549 1549 1550 1550 1551 1552 1552 1553 1554 1554 1555 1556 1557 1558 1559 1560 1560 1561 1561 1561 1561 1562 1562 1562 1563 1563 1563 1563 1562 1562 1562 1563 1563 1564 1564 1565 1565 1565 1565 1566
1508 1509 1512 1515 1518 1521 1523 1523 1524 1524 1524 1526 1528 1529 1530 1531 1532 1533 1533 1532 1532 1532 1532 1533 1533 1534 1534 1535 1535 1536 1537 1538 1538 1539 1539 1540 1541 1542 1543 1544 1545 1545 1545 1547 1548 1549 1550 1550 1551 1551 1552 1552 1553 1554 1555 1556 1557 1558 1559 1559 1559 1560 1561 1561 1561 1562 1562 1562 1563 1563 1563 1563 1563 1563 1563 1563 1564 1564 1564 1565 1565 1565 1566 1566 1566
1509 1510 1511 1514 1517 1521 1523 1524 1524 1525 1525 1526 1528 1530 1530 1531 1532 1532 1532 1531 1531 1531 1531 1531 1532 1533 1534 1534 1535 1535 1536 1537 1537 1537 1538 1539 1541 1541 1542 1542 1542 1543 1544 1545 1547 1549 1550 1551 1551 1552 1552 1553 1553 1554 1556 1557 1558 1559 1559 1559 1559 1560 1561 1561 1562 1562 1562 1563 1563 1563 1563 1563 1563 1564 1564 1564 1564 1565 1565 1565 1565 1566 1566 1566 1566
1509 1510 1512 1513 1516 1520 1523 1524 1524 1524 1525 1526 1528 1530 1530 1531 1531 1531 1531 1530 1530 1530 1530 1530 1531 1531 1532 1533 1533 1534 1535 1536 1537 1537 1537 1538 1540 1541 1541 1541 1541 1543 1544 1544 1546 1548 1549 1550 1551 1551 1552 1553 1553 1555 1558 1559 1560 1560 1559 1559 1559 1560 1561 1561 1562 1562 1562 1562 1563 1562 1563 1563 1564 1564 1564 1565 1565 1565 1566 1566 1566 1566 1567 1567 1567
1509 1510 1512 1513 1515 1518 1522 1524 1524 1524 1524 1526 1529 1530 1530 1531 1531 1530 1529 1529 1529 1529 1529 1529 1529 1530 1530 1531 1532 1533 1534 1535 1536 1536 1537 1539 1540 1540 1541 1541 1542 1544 1545 1544 1544 1546 1548 1549 1550 1551 1551 1553 1554 1555 1558 1559 1559 1559 1559 1559 1559 1559 1560 1560 1561 1562 1562 1562 1562 1562 1562 1563 1564 1564 1564 1565 1565 1566 1566 1566 1566 1566 1567 1567 1567
1509 1510 1510 1512 1514 1517 1519 1521 1522 1523 1525 1526 1528 1529 1530 1530 1530 1529 1529 1529 1529 1529 1529 1528 1528 1529 1529 1530 1531 1532 1533 1534 1535 1536 1537 1539 1540 1540 1540 1541 1542 1543 1544 1543 1544 1545 1547 1548 1550 1550 1551 1553 1554 1555 1557 1558 1558 1558 1558 1558 1559 1559 1559 1560 1561 1561 1562 1562 1562 1562 1561 1562 1564 1564 1564 1565 1565 1565 1566 1566 1566 1566 1566 1566 1567
1509 1510 1510 1510 1512 1515 1518 1520 1522 1523 1525 1526 1527 1528 1529 1529 1529 1529 1528 1528 1528 1528 1528 1528 1528 1528 1528 1529 1530 1531 1532 1533 1534 1536 1537 1538 1539 1540 1540 1541 1542 1543 1543 1544 1545 1545 1546 1547 1549 1550 1550 1552 1553 1553 1555 1557 1557 1557 1557 1558 1558 1559 1559 1560 1560 1561 1561 1561 1561 1562 1561 1562 1562 1562 1563 1564 1564 1565 1565 1565 1565 1565 1565 1565 1566
1508 1510 1511 1511 1513 1515 1518 1520 1521 1523 1524 1526 1527 1527 1528 1528 1529 1529 1528 1528 1528 1527 1527 1527 1527 1527 1527 1528 1530 1531 1531 1532 1534 1535 1536 1537 1538 1539 1540 1541 1542 1543 1543 1544 1545 1546 1546 1547 1548 1549 1550 1551 1552 1552 1554 1555 1556 1556 1557 1557 1558 1558 1559 1560 1560 1560 1560 1559 1560 1560 1561 1562 1562 1562 1562 1563 1564 1564 1564 1564 1565 1565 1565 1565 1565
1509 1510 1512 1513 1514 1515 1516 1518 1520 1522 1523 1525 1526 1527 1527 1527 1528 1528 1528 1528 1527 1526 1526 1526 1527 1527 1527 1528 1529 1530 1531 1532 1533 1535 1536 1537 1537 1538 1539 1540 1542 1542 1543 1544 1545 1545 1546 1547 1548 1549 1550 1551 1551 1552 1553 1554 1555 1556 1556 1557 1558 1558 1558 1559 1560 1560 1559 1559 1559 1559 1560 1561 1562 1561 1562 1562 1562 1562 1563 1564 1564 1565 1565 1565 1565
1509 1510 1511 1513 1514 1515 1515 1516 1518 1520 1522 1524 1525 1526 1526 1527 1527 1528 1528 1527 1527 1526 1526 1526 1527 1527 1528 1529 1530 1531 1532 1532 1533 1534 1535 1536 1536 1537 1538 1539 1540 1541 1542 1542 1543 1544 1545 1546 1547 1548 1550 1550 1551 1552 1553 1554 1555 1556 1556 1557 1557 1557 1558 1559 1560 1560 1559 1559 1558 1559 1559 1560 1561 1561 1561 1561 1560 1560 1562 1563 1563 1563 1564 1564 1564
1508 1510 1511 1512 1514 1515 1514 1515 1517 1519 1521 1523 1524 1525 1526 1526 1527 1527 1527 1527 1527 1527 1527 1527 1527 1528 1529 1530 1531 1531 1532 1533 1533 1534 1535 1535 1536 1537 1538 1538 1539 1540 1541 1541 1542 1543 1544 1544 1545 1547 1548 1549 1549 1550 1552 1553 1554 1555 1555 1556 1556 1557 1558 1559 1559 1560 1560 1559 1559 1559 1559 1560 1560 1561 1560 1560 1560 1560 1561 1561 1562 1562 1562 1563 1563
1508 1509 1510 1512 1513 1514 1515 1515 1517 1518 1521 1522 1524 1525 1526 1527 1527 1527 1527 1527 1527 1527 1527 1528 1528 1529 1530 1531 1532 1532 1533 1533 1533 1534 1535 1535 1536 1536 1537 1538 1538 1539 1540 1540 1541 1542 1543 1544 1545 1546 1547 1548 1548 1549 1550 1551 1553 1554 1554 1555 1555 1556 1557 1558 1559 1559 1559 1559 1559 1559 1559 1559 1559 1560 1559 1559 1559 1559 1559 1560 1561 1561 1561 1561 1561
1508 1509 1510 1511 1512 1513 1514 1516 1517 1518 1520 1522 1524 1525 1526 1526 1526 1526 1527 1527 1528 1528 1528 1528 1529 1529 1530 1532 1532 1533 1533 1534 1534 1534 1534 1535 1535 1536 1536 1537 1537 1538 1539 1540 1541 1541 1542 1543 1544 1544 1545 1546 1547 1548 1549 1550 1551 1552 1553 1554 1555 1555 1556 1557 1558 1559 1559 1559 1559 1559 1559 1559 1559 1559 1558 1558 1558 1558 1558 1559 1559 1559 1559 1559 1559
1507 1508 1509 1510 1511 1513 1515 1516 1518 1519 1521 1522 1523 1525 1525 1526 1526 1526 1527 1527 1528 1529 1528 1528 1529 1529 1530 1531 1532 1533 1533 1534 1534 1534 1534 1535 1535 1535 1536 1536 1537 1538 1539 1539 1540 1541 1541 1542 1543 1543 1544 1545 1546 1547 1548 1549 1550 1551 1552 1552 1554 1555 1556 1556 1557 1558 1559 1559 1559 1559 1559 1559 1558 1558 1558 1558 1557 1557 1557 1557 1558 1558 1558 1558 1558
1504 1506 1508 1509 1511 1513 1515 1516 1518 1519 1521 1522 1523 1524 1525 1525 1526 1527 1527 1528 1529 1529 1529 1529 1529 1529 1530 1531 1531 1532 1533 1533 1533 1533 1534 1534 1535 1536 1536 1536 1537 1538 1538 1539 1540 1540 1541 1541 1542 1543 1543 1544 1545 1546 1547 1548 1550 1550 1551 1551 1553 1554 1556 1556 1556 1557 1558 1559 1559 1559 1559 1559 1558 1558 1558 1557 1557 1557 1557 1556 1557 1557 1557 1557 1557
1502 1504 1506 1508 1509 1512 1514 1516 1518 1520 1521 1523 1524 1524 1525 1526 1526 1527 1528 1529 1529 1529 1529 1529 1529 1529 1530 1531 1531 1531 1532 1532 1533 1533 1534 1534 1535 1536 1537 1537 1537 1538 1538 1539 1540 1540 1541 1541 1541 1542 1543 1544 1545 1546 1546 1547 1548 1550 1551 1552 1553 1554 1555 1556 1556 1557 1558 1558 1559 1559 1559 1558 1558 1558 1558 1557 1557 1557 1556 1556 1556 1556 1556 1556 1556
1501 1503 1504 1505 1507 1509 1512 1515 1518 1520 1522 1523 1524 1525 1525 1526 1527 1528 1528 1529 1529 1529 1530 1530 1530 1530 1531 1531 1531 1531 1532 1532 1532 1533 1534 1535 1536 1536 1537 1537 1538 1538 1539 1539 1540 1540 1541 1541 1541 1542 1543 1544 1545 1545 1546 1547 1548 1549 1550 1551 1553 1554 1555 1555 1556 1556 1557 1558 1559 1559 1559 1558 1558 1558 1557 1557 1557 1556 1556 1556 1556 1556 1556 1556 1555
1500 1502 1501 1500 1501 1505 1511 1515 1519 1521 1523 1524 1525 1525 1526 1527 1527 1528 1529 1529 1529 1530 1530 1531 1531 1531 1531 1531 1532 1532 1532 1532 1532 1533 1534 1535 1536 1536 1537 1538 1539 1539 1540 1540 1540 1541 1541 1542 1542 1543 1543 1544 1545 1545 1546 1547 1547 1548 1549 1551 1552 1554 1554 1555 1556 1556 1557 1558 1559 1559 1559 1558 1558 1557 1557 1557 1556 1556 1556 1556 1556 1556 1556 1555 1555
1501 1500 1498 1499 1502 1508 1515 1518 1520 1522 1523 1524 1525 1526 1527 1528 1528 1528 1529 1529 1530 1531 1531 1531 1532 1532 1532 1532 1532 1532 1532 1532 1532 1532 1534 1535 1536 1537 1537 1538 1539 1540 1540 1540 1541 1542 1542 1543 1543 1543 1544 1544 1545 1545 1546 1547 1547 1548 1549 1551 1552 1553 1554 1555 1555 1556 1556 1557 1558 1558 1558 1558 1558 1558 1558 1557 1557 1557 1557 1557 1556 1556 1556 1555 1555
1501 1498 1498 1503 1508 1511 1513 1515 1518 1520 1521 1523 1525 1527 1528 1529 1530 1530 1530 1530 1530 1531 1531 1532 1532 1532 1532 1532 1532 1532 1532 1532 1532 1533 1534 1535 1536 1537 1538 1539 1540 1540 1540 1541 1541 1542 1543 1543 1544 1544 1544 1545 1545 1546 1546 1547 1548 1549 1550 1551 1552 1553 1553 1554 1555 1555 1556 1556 1557 1557 1558 1558 1558 1558 1558 1558 1558 1558 1558 1557 1557 1557 1556 1556 1556